FW9784 Weather Reports


Display with metric or nautical units.
time (UTC)temp
F
wind
direction
speed
MPH
gust
MPH
rain 1hr
in
rain 24hr
in
rain mn
in
humidity
%
barometer
mb
20260509045030 59 283 2.0 4.0 0.00 0.00 0.00 92 1014.1
20260509044530 59 262 2.0 4.0 0.00 0.00 0.00 92 1014.1
20260509044030 59 276 2.0 4.0 0.00 0.00 0.00 92 1014.0
20260509043529 59 322 2.0 4.0 0.00 0.00 0.00 92 1014.0
20260509043029 60 302 2.0 6.0 0.00 0.00 0.00 91 1013.9
20260509042528 60 220 2.0 6.0 0.00 0.00 0.00 91 1013.9
20260509042038 60 242 2.0 5.0 0.00 0.00 0.00 91 1014.0
20260509041529 60 201 2.0 6.0 0.00 0.00 0.00 91 1013.9
20260509041029 60 0 2.0 6.0 0.00 0.00 0.00 91 1013.9
20260509040527 60 209 2.0 5.0 0.00 0.00 0.00 91 1013.9
20260509040024 60 303 2.0 5.0 0.00 0.00 0.00 91 1013.9
20260509035525 60 254 2.0 5.0 0.00 0.00 0.00 91 1013.9
20260509035023 60 0 2.0 5.0 0.00 0.00 0.00 90 1013.8
20260509034525 60 231 1.0 4.0 0.00 0.00 0.00 90 1013.8
20260509034021 60 0 2.0 5.0 0.00 0.00 0.00 91 1013.7
20260509033517 60 259 2.0 5.0 0.00 0.00 0.00 91 1013.6
20260509033015 60 0 1.0 4.0 0.00 0.00 0.00 90 1013.5
20260509032855 60 263 2.0 4.0 0.00 0.00 0.00 90 1013.5
20260509032017 60 226 2.0 5.0 0.00 0.00 0.00 90 1013.4
20260509031516 60 265 2.0 7.0 0.00 0.00 0.00 90 1013.4
20260509031015 60 249 2.0 7.0 0.00 0.00 0.00 90 1013.4
20260509030540 61 211 2.0 7.0 0.00 0.00 0.00 90 1013.3
20260509030527 61 250 2.0 5.0 0.00 0.00 0.00 90 1013.3
20260509030126 61 279 2.0 6.0 0.00 0.00 0.00 90 1013.3
20260509025015 61 218 3.0 7.0 0.00 0.00 0.00 89 1013.3
20260509024512 61 262 3.0 9.0 0.00 0.00 0.00 89 1013.3
20260509024013 61 270 3.0 9.0 0.00 0.00 0.00 89 1013.2
20260509023509 61 267 3.0 6.0 0.00 0.00 0.00 89 1013.3
20260509023013 61 265 3.0 6.0 0.00 0.00 0.00 89 1013.1
20260509022509 61 265 2.0 4.0 0.00 0.00 0.00 89 1013.1
20260509022010 61 260 3.0 8.0 0.00 0.00 0.00 89 1013.1
20260509021510 61 269 4.0 8.0 0.00 0.00 0.00 89 1013.2
20260509021008 62 252 4.0 8.0 0.00 0.00 0.00 88 1013.2
20260509020853 62 267 4.0 8.0 0.00 0.00 0.00 88 1013.1
20260509020007 62 215 4.0 8.0 0.00 0.00 0.00 88 1013.0
20260509015503 62 264 4.0 8.0 0.00 0.00 0.00 87 1013.1
20260509015312 62 220 3.0 8.0 0.00 0.00 0.00 87 1012.9
20260509014459 63 212 3.0 7.0 0.00 0.00 0.00 87 1012.9
20260509013959 63 261 3.0 7.0 0.00 0.00 0.00 87 1013.0
20260509013503 63 266 3.0 6.0 0.00 0.00 0.00 87 1012.9
20260509012959 63 197 3.0 8.0 0.00 0.00 0.00 86 1013.0
20260509012501 63 222 3.0 8.0 0.00 0.00 0.00 86 1013.1
20260509011959 63 215 4.0 9.0 0.00 0.00 0.00 86 1013.1
20260509011502 63 256 4.0 10.0 0.00 0.00 0.00 86 1013.0
20260509011000 63 252 3.0 10.0 0.00 0.00 0.00 85 1013.0
20260509010458 63 0 4.0 10.0 0.00 0.00 0.00 86 1013.0
20260509005959 64 257 4.0 10.0 0.00 0.00 0.00 85 1012.9
20260509005458 64 269 4.0 10.0 0.00 0.00 0.00 85 1012.9
20260509004958 64 283 4.0 9.0 0.00 0.00 0.00 85 1013.0
20260509004454 64 269 4.0 10.0 0.00 0.00 0.00 84 1013.0
20260509003956 64 0 4.0 10.0 0.00 0.00 0.00 84 1013.1
20260509003452 64 198 4.0 7.0 0.00 0.00 0.00 84 1013.1
20260509003008 65 0 4.0 10.0 0.00 0.00 0.00 84 1013.0
20260509002836 65 215 4.0 10.0 0.00 0.00 0.00 84 1013.0
20260509001959 65 183 4.0 11.0 0.00 0.00 0.00 84 1013.1
20260509001454 65 248 5.0 11.0 0.00 0.00 0.00 84 1013.1
20260509001259 65 272 5.0 10.0 0.00 0.00 0.00 84 1013.1
20260509000451 65 235 5.0 10.0 0.00 0.00 0.00 83 1013.1
20260508235950 65 290 5.0 10.0 0.00 0.00 0.00 83 1013.1
20260508235448 66 236 4.0 9.0 0.00 0.00 0.00 82 1013.0
20260508234949 66 260 5.0 10.0 0.00 0.00 0.00 81 1013.0
20260508234840 67 215 5.0 10.0 0.00 0.00 0.00 80 1013.1
20260508233951 68 261 4.0 11.0 0.00 0.00 0.00 79 1013.1
20260508233449 68 262 4.0 11.0 0.00 0.00 0.00 78 1013.2
20260508232955 69 191 4.0 9.0 0.00 0.00 0.00 77 1013.1
20260508232643 69 0 5.0 12.0 0.00 0.00 0.00 77 1013.3
20260508232548 69 263 5.0 12.0 0.00 0.00 0.00 78 1013.1
20260508231448 69 194 5.0 13.0 0.00 0.00 0.00 78 1013.3
20260508230948 69 227 5.0 13.0 0.00 0.00 0.00 78 1013.2
20260508230752 69 0 4.0 12.0 0.00 0.00 0.00 77 1013.3
20260508225955 69 223 5.0 12.0 0.00 0.00 0.00 77 1013.4
20260508225455 69 324 5.0 11.0 0.00 0.00 0.00 77 1013.3
20260508224955 69 215 4.0 11.0 0.00 0.00 0.00 77 1013.5
20260508224457 69 282 5.0 11.0 0.00 0.00 0.00 77 1013.5
20260508223951 69 249 5.0 12.0 0.00 0.00 0.00 76 1013.6
20260508223451 69 198 5.0 12.0 0.00 0.00 0.00 76 1013.8
20260508222949 69 219 4.0 9.0 0.00 0.00 0.00 76 1013.8
20260508222449 69 229 4.0 8.0 0.00 0.00 0.00 76 1013.8
20260508221951 69 204 5.0 11.0 0.00 0.00 0.00 76 1013.8
20260508221442 70 252 5.0 11.0 0.00 0.00 0.00 76 1013.9
20260508221243 70 220 4.0 12.0 0.00 0.00 0.00 76 1014.1
20260508221146 70 259 4.0 12.0 0.00 0.00 0.00 76 1014.0
20260508215948 70 261 5.0 10.0 0.00 0.00 0.00 76 1014.2
20260508215439 69 195 5.0 12.0 0.00 0.00 0.00 77 1014.2
20260508214947 69 232 5.0 12.0 0.00 0.00 0.00 75 1014.3
20260508214433 70 0 5.0 11.0 0.00 0.00 0.00 76 1014.3
20260508213938 70 192 4.0 9.0 0.00 0.00 0.00 76 1014.3
20260508213834 70 248 5.0 10.0 0.00 0.00 0.00 76 1014.4
20260508212935 69 181 5.0 10.0 0.00 0.00 0.00 76 1014.4
20260508212433 69 170 5.0 11.0 0.00 0.00 0.00 77 1014.5
20260508211931 69 0 5.0 12.0 0.00 0.00 0.00 77 1014.5
20260508211431 69 0 5.0 12.0 0.00 0.00 0.00 77 1014.5
20260508210933 70 0 5.0 10.0 0.00 0.00 0.00 77 1014.5
20260508210804 69 209 5.0 11.0 0.00 0.00 0.00 78 1014.6
20260508205930 70 230 5.0 11.0 0.00 0.00 0.00 77 1014.6
20260508205433 70 171 5.0 10.0 0.00 0.00 0.00 77 1014.8
20260508204931 70 0 4.0 10.0 0.00 0.00 0.00 77 1014.9
20260508204430 69 0 4.0 10.0 0.00 0.00 0.00 77 1014.8
20260508203926 69 214 5.0 11.0 0.00 0.00 0.00 78 1014.9
20260508203422 69 0 4.0 11.0 0.00 0.00 0.00 77 1014.9
20260508202937 69 208 4.0 9.0 0.00 0.00 0.00 77 1014.9
20260508202420 69 0 5.0 12.0 0.00 0.00 0.00 78 1015.1
20260508201921 69 215 5.0 12.0 0.00 0.00 0.00 78 1015.0
20260508201419 69 0 4.0 9.0 0.00 0.00 0.00 78 1015.2
20260508200916 69 198 4.0 9.0 0.00 0.00 0.00 77 1015.2
20260508200419 69 0 5.0 10.0 0.00 0.00 0.00 78 1015.2
20260508195918 69 200 4.0 10.0 0.00 0.00 0.00 78 1015.3
20260508195421 69 181 4.0 9.0 0.00 0.00 0.00 78 1015.2
20260508194917 68 146 4.0 10.0 0.00 0.00 0.00 79 1015.3
20260508194417 69 0 4.0 10.0 0.00 0.00 0.00 79 1015.3
20260508193917 68 205 4.0 9.0 0.00 0.00 0.00 79 1015.3
20260508193417 68 211 4.0 11.0 0.00 0.00 0.00 79 1015.3
20260508192919 68 265 3.0 11.0 0.00 0.00 0.00 78 1015.4
20260508192409 68 211 3.0 8.0 0.00 0.00 0.00 80 1015.4
20260508191907 68 224 4.0 8.0 0.00 0.00 0.00 80 1015.5
20260508191400 67 207 4.0 8.0 0.00 0.00 0.00 81 1015.5
20260508190857 67 279 3.0 8.0 0.00 0.00 0.00 82 1015.6
20260508190356 67 262 3.0 8.0 0.00 0.00 0.00 82 1015.6
20260508185856 67 280 2.0 8.0 0.00 0.00 0.00 82 1015.7
20260508185355 66 260 3.0 6.0 0.00 0.00 0.00 83 1015.8
20260508184855 66 192 3.0 6.0 0.00 0.00 0.00 83 1015.8
20260508184355 66 0 2.0 6.0 0.00 0.00 0.00 83 1015.9
20260508183852 66 270 3.0 7.0 0.00 0.00 0.00 84 1015.9
20260508183353 65 209 3.0 7.0 0.00 0.00 0.00 83 1015.9
20260508182852 65 217 3.0 7.0 0.00 0.00 0.00 84 1015.9
20260508182350 65 281 3.0 7.0 0.00 0.00 0.00 85 1015.9
20260508181851 65 208 3.0 7.0 0.00 0.00 0.00 85 1015.9
20260508181354 65 266 3.0 7.0 0.00 0.00 0.00 85 1015.9
20260508180850 65 198 3.0 8.0 0.00 0.00 0.00 85 1015.9
20260508180350 65 190 3.0 9.0 0.00 0.00 0.00 85 1016.0
20260508180245 65 234 3.0 9.0 0.00 0.00 0.00 85 1016.0
20260508175339 65 253 3.0 8.0 0.00 0.00 0.00 84 1016.1
20260508174842 65 264 2.0 7.0 0.00 0.00 0.00 84 1016.1
20260508174642 65 229 2.0 5.0 0.00 0.00 0.00 84 1016.1
20260508173844 65 199 2.0 4.0 0.00 0.00 0.00 84 1016.0
20260508173340 65 225 2.0 4.0 0.00 0.00 0.00 84 1016.2
20260508172844 65 194 1.0 3.0 0.00 0.00 0.00 84 1016.1
20260508172721 65 277 1.0 3.0 0.00 0.00 0.00 84 1016.1
20260508171837 65 184 1.0 2.0 0.00 0.00 0.00 84 1016.1
20260508171338 65 159 1.0 3.0 0.00 0.00 0.00 84 1016.2
20260508170838 65 159 1.0 3.0 0.00 0.00 0.00 84 1016.2
20260508170337 65 278 1.0 3.0 0.00 0.00 0.00 84 1016.2
20260508165833 65 244 1.0 3.0 0.00 0.00 0.00 84 1016.1
20260508165330 65 65 1.0 3.0 0.00 0.00 0.00 84 1016.0
20260508164831 64 65 1.0 3.0 0.00 0.00 0.00 84 1016.0
20260508164330 64 74 1.0 3.0 0.00 0.00 0.00 85 1016.0
20260508163830 64 127 0.0 3.0 0.00 0.00 0.00 85 1016.1
20260508163330 64 177 0.0 0.0 0.00 0.00 0.00 85 1016.0
20260508162831 64 113 0.0 0.0 0.00 0.00 0.00 86 1016.0
20260508162330 64 113 0.0 0.0 0.00 0.00 0.00 86 1016.0
20260508161829 64 113 0.0 0.0 0.00 0.00 0.00 86 1016.0
20260508161330 63 113 0.0 0.0 0.00 0.00 0.00 86 1016.0
20260508160829 63 113 0.0 0.0 0.00 0.00 0.00 86 1015.9
20260508160733 63 113 0.0 3.0 0.00 0.00 0.00 87 1016.0
20260508155829 63 113 1.0 4.0 0.00 0.00 0.00 87 1016.0
20260508155640 63 124 1.0 4.0 0.00 0.00 0.00 87 1016.0
20260508154827 63 68 1.0 3.0 0.00 0.00 0.00 87 1016.0
20260508154327 62 68 1.0 3.0 0.00 0.00 0.00 87 1015.9
20260508153826 62 68 1.0 3.0 0.00 0.00 0.00 87 1015.9
20260508153326 62 77 1.0 3.0 0.00 0.00 0.00 87 1016.0
20260508152826 62 77 1.0 4.0 0.00 0.00 0.00 88 1016.0
20260508152327 62 61 1.0 4.0 0.00 0.00 0.00 88 1016.0
20260508151828 62 78 2.0 4.0 0.00 0.00 0.00 88 1016.0
20260508151326 62 96 2.0 5.0 0.00 0.00 0.00 88 1015.9
20260508150827 62 78 2.0 5.0 0.00 0.00 0.00 88 1016.1
20260508150328 62 45 2.0 4.0 0.00 0.00 0.00 88 1016.1
20260508150129 62 57 1.0 4.0 0.00 0.00 0.00 88 1016.1
20260508145324 62 115 0.0 3.0 0.00 0.00 0.00 89 1016.0
20260508144824 62 48 1.0 3.0 0.00 0.00 0.00 89 1016.0
20260508144324 62 51 2.0 4.0 0.00 0.00 0.00 89 1016.0
20260508143824 62 57 1.0 4.0 0.00 0.00 0.00 89 1016.1
20260508143325 62 63 1.0 4.0 0.00 0.00 0.00 89 1016.1
20260508142825 62 9 1.0 4.0 0.00 0.00 0.00 89 1016.2
20260508142700 62 63 1.0 4.0 0.00 0.00 0.00 89 1016.1
20260508141824 61 74 1.0 4.0 0.00 0.00 0.00 89 1016.1
20260508141326 61 59 1.0 4.0 0.00 0.00 0.00 89 1015.9
20260508140824 61 72 1.0 4.0 0.00 0.00 0.00 89 1016.0
20260508140649 61 74 1.0 4.0 0.00 0.00 0.00 89 1015.9
20260508135825 61 44 0.0 4.0 0.00 0.00 0.00 89 1015.8
20260508135325 61 106 0.0 0.0 0.00 0.00 0.00 89 1015.8
20260508134824 61 58 0.0 0.0 0.00 0.00 0.00 89 1015.8
20260508134321 61 58 0.0 0.0 0.00 0.00 0.00 89 1015.8
20260508133820 61 58 0.0 0.0 0.00 0.00 0.00 89 1015.8
20260508133320 61 58 1.0 3.0 0.00 0.00 0.00 89 1015.8
20260508132818 61 58 1.0 3.0 0.00 0.00 0.00 89 1015.7
20260508132319 61 58 1.0 3.0 0.00 0.00 0.00 89 1015.6
20260508131820 61 58 1.0 3.0 0.00 0.00 0.00 89 1015.5
20260508131319 61 58 1.0 3.0 0.00 0.00 0.00 89 1015.5
20260508131152 61 61 0.0 3.0 0.00 0.00 0.00 89 1015.5
20260508130712 61 78 0.0 2.0 0.00 0.00 0.00 89 1015.4
20260508125814 61 78 1.0 7.0 0.00 0.00 0.00 89 1015.5
20260508125315 61 78 1.0 7.0 0.00 0.00 0.00 89 1015.4
20260508124812 61 58 1.0 3.0 0.00 0.00 0.00 88 1015.4
20260508124313 61 181 2.0 6.0 0.00 0.00 0.00 88 1015.4
20260508123805 61 101 2.0 6.0 0.00 0.00 0.00 88 1015.3
20260508123315 61 104 2.0 4.0 0.00 0.00 0.00 88 1015.2
20260508122807 61 63 1.0 3.0 0.00 0.00 0.00 88 1015.2
20260508122308 61 63 1.0 3.0 0.00 0.00 0.00 88 1015.2
20260508121802 61 63 1.0 3.0 0.00 0.00 0.00 88 1015.2
20260508121302 61 52 1.0 4.0 0.00 0.00 0.00 88 1015.1
20260508120801 61 65 2.0 4.0 0.00 0.00 0.00 88 1015.1
20260508120311 61 69 2.0 4.0 0.00 0.00 0.00 88 1015.0
20260508115801 61 115 2.0 4.0 0.00 0.00 0.00 88 1015.1
20260508115306 61 103 1.0 4.0 0.00 0.00 0.00 88 1015.0
20260508114804 61 97 2.0 4.0 0.00 0.00 0.00 88 1015.0
20260508114301 61 121 2.0 6.0 0.00 0.00 0.00 88 1015.0
20260508113801 61 100 2.0 6.0 0.00 0.00 0.00 88 1015.0
20260508113301 61 113 2.0 4.0 0.00 0.00 0.00 88 1015.0
20260508112804 61 116 2.0 6.0 0.00 0.00 0.00 88 1015.0
20260508112628 61 109 2.0 6.0 0.00 0.00 0.00 88 1015.0
20260508111749 61 89 2.0 6.0 0.00 0.00 0.00 88 1014.9
20260508111705 61 111 1.0 4.0 0.00 0.00 0.00 89 1015.0
20260508111312 61 121 2.0 6.0 0.00 0.00 0.00 88 1014.9
20260508110243 61 111 1.0 6.0 0.00 0.00 0.00 89 1015.0
20260508105941 61 82 1.0 6.0 0.00 0.00 0.00 90 1014.9
20260508105855 61 101 1.0 6.0 0.00 0.00 0.00 89 1014.9
20260508104741 61 51 0.0 6.0 0.00 0.00 0.00 90 1014.9
20260508104245 61 114 0.0 0.0 0.00 0.00 0.00 90 1014.9
20260508104113 61 110 0.0 0.0 0.00 0.00 0.00 90 1014.9
20260508103242 61 253 0.0 0.0 0.00 0.00 0.00 90 1015.0
20260508102739 61 253 0.0 0.0 0.00 0.00 0.00 91 1014.9
20260508102707 61 253 0.0 0.0 0.00 0.00 0.00 91 1015.0
20260508101738 61 253 0.0 0.0 0.00 0.00 0.00 91 1015.0
20260508101236 61 253 0.0 0.0 0.00 0.00 0.00 91 1015.0
20260508100737 61 253 0.0 0.0 0.00 0.00 0.00 91 1015.0
20260508100236 61 253 0.0 0.0 0.00 0.00 0.00 91 1014.9
20260508095737 60 253 0.0 0.0 0.00 0.00 0.00 91 1015.0
20260508095248 60 253 0.0 0.0 0.00 0.00 0.00 91 1015.0
20260508095043 60 253 0.0 0.0 0.00 0.00 0.00 91 1015.0
20260508094235 60 253 0.0 0.0 0.00 0.00 0.00 92 1015.1
20260508093731 60 253 0.0 0.0 0.00 0.00 0.00 92 1015.2
20260508093232 60 253 0.0 0.0 0.00 0.00 0.00 92 1015.2
20260508092731 60 253 0.0 0.0 0.00 0.00 0.00 92 1015.2
20260508092229 60 253 0.0 0.0 0.00 0.00 0.00 92 1015.2
20260508092104 60 253 0.0 0.0 0.00 0.00 0.00 92 1015.2
20260508091230 60 253 0.0 0.0 0.00 0.00 0.00 92 1015.2
20260508090731 60 253 0.0 0.0 0.00 0.00 0.00 92 1015.3
20260508090231 60 253 0.0 0.0 0.00 0.00 0.00 92 1015.4
20260508085729 60 253 0.0 0.0 0.00 0.00 0.00 92 1015.4
20260508085225 60 253 0.0 0.0 0.00 0.00 0.00 92 1015.4
20260508084725 60 253 0.0 0.0 0.00 0.00 0.00 92 1015.3
20260508084226 60 253 0.0 0.0 0.00 0.00 0.00 92 1015.4
20260508083727 60 253 0.0 0.0 0.00 0.00 0.00 92 1015.4
20260508083545 60 253 0.0 2.0 0.00 0.00 0.00 92 1015.4
20260508082725 60 253 1.0 2.0 0.00 0.00 0.00 91 1015.4
20260508082538 60 253 1.0 3.0 0.00 0.00 0.00 91 1015.5
20260508081721 60 253 1.0 3.0 0.00 0.00 0.00 91 1015.6
20260508081223 60 253 1.0 3.0 0.00 0.00 0.00 91 1015.6
20260508080720 60 253 1.0 3.0 0.00 0.00 0.00 91 1015.6
20260508080220 60 253 1.0 3.0 0.00 0.00 0.00 91 1015.7
20260508075720 60 253 1.0 3.0 0.00 0.00 0.00 91 1015.8
20260508075219 61 249 1.0 4.0 0.00 0.00 0.00 91 1015.8
20260508074719 61 273 1.0 4.0 0.00 0.00 0.00 91 1015.7
20260508074219 61 244 1.0 4.0 0.00 0.00 0.00 91 1015.6
20260508073719 61 0 1.0 4.0 0.00 0.00 0.00 91 1015.7
20260508073604 61 285 2.0 4.0 0.00 0.00 0.00 91 1015.8
20260508072719 61 294 1.0 4.0 0.00 0.00 0.00 90 1015.7
20260508072221 61 242 1.0 3.0 0.00 0.00 0.00 90 1015.7
20260508072043 61 242 2.0 3.0 0.00 0.00 0.00 90 1015.9
20260508071219 61 242 1.0 3.0 0.00 0.00 0.00 90 1015.7
20260508071034 61 0 2.0 4.0 0.00 0.00 0.00 90 1015.7
20260508070849 61 215 1.0 4.0 0.00 0.00 0.00 90 1015.7
20260508065717 61 219 1.0 3.0 0.00 0.00 0.00 90 1015.6
20260508065215 61 255 0.0 3.0 0.00 0.00 0.00 90 1015.6
20260508064717 61 266 1.0 3.0 0.00 0.00 0.00 90 1015.7
20260508064212 61 256 1.0 2.0 0.00 0.00 0.00 90 1015.7
20260508063713 61 256 1.0 3.0 0.00 0.00 0.00 90 1015.6
20260508063210 61 211 2.0 4.0 0.00 0.00 0.00 90 1015.6
20260508062712 61 225 2.0 4.0 0.00 0.00 0.00 90 1015.6
20260508062613 61 214 2.0 4.0 0.00 0.00 0.00 90 1015.6
20260508061705 61 209 1.0 4.0 0.00 0.00 0.00 90 1015.6
20260508061205 62 230 2.0 5.0 0.00 0.00 0.00 90 1015.5
20260508060703 62 201 2.0 5.0 0.00 0.00 0.00 90 1015.5
20260508060204 62 234 1.0 4.0 0.00 0.00 0.00 90 1015.6
20260508055706 62 255 1.0 3.0 0.00 0.00 0.00 90 1015.5
20260508055646 62 206 1.0 4.0 0.00 0.00 0.00 90 1015.5
20260508055641 62 207 1.0 3.0 0.00 0.00 0.00 90 1015.6
20260508055235 62 255 1.0 4.0 0.00 0.00 0.00 90 1015.5
20260508053703 62 207 1.0 3.0 0.00 0.00 0.00 90 1015.6
20260508053202 62 207 0.0 3.0 0.00 0.00 0.00 90 1015.5
20260508052704 62 207 1.0 4.0 0.00 0.00 0.00 90 1015.5
20260508052539 62 207 1.0 4.0 0.00 0.00 0.00 90 1015.5
20260508051719 62 237 1.0 3.0 0.00 0.00 0.00 90 1015.5
20260508051203 62 261 1.0 4.0 0.00 0.00 0.00 91 1015.6
20260508050720 62 159 1.0 4.0 0.00 0.00 0.00 91 1015.6
20260508050203 61 220 1.0 3.0 0.00 0.00 0.00 91 1015.5
20260508045720 61 220 1.0 3.0 0.00 0.00 0.00 91 1015.4
20260508045203 61 191 1.0 3.0 0.00 0.00 0.00 91 1015.4